COSMOS 2251 DEB, 34968

Orbit data source: Space-Track

COSMOS 2251 DEB, 34968 is space debris in LEO originally from a launch on Wed, 16 Jun 1993 UTC launched from the Plesetsk Missile And Space Complex (PKMTR). The debris from Iridium 33, an American commercial communications satellite, has been tracked extensively since its accidental collision with the defunct Russian satellite Cosmos 2251 in 2009. This event, occurring at high speed in low Earth orbit (LEO), generated thousands of pieces of space debris, significantly increasing the risk of further collisions. The Iridium 33 debris cloud has impacted space traffic management and orbital debris mitigation strategies, making it a subject of ongoing study in space situational awareness.

Loading next visibility...
Identifier
34968, 1993-036AEX
Orbit
LEO
Country
Flag of CISCIS
Related business
Manufacturer
Unknown
Mission
Spacecraft
Bus & Motor
Unknown
Mass
Unknown
Launch date (UTC)
1993-06-16 (33 years ago)
Launch vehicle
Unknown
Launch site
Plesetsk Missile And Space Complex (PKMTR)
Object type
Payload
Rocket body
Debris
Shape & HBR
Unknown shape, 0.1 m
Radar Cross Section
Small (<0.1 m²)

Expand to show TLE details & history
Last TLE update: 2 days ago

TLE from 2 days ago
0 COSMOS 2251 DEB
1 34968U 93036AEX 26207.33627398  .00000478  00000-0  10160-3 0  9999
2 34968  74.0381 176.8984 0087657 241.1823 118.0522 14.59714125917692
Epoch: 2026-07-26T08:04Z
TLE epoch observation values (Epoch: 2026-07-26T08:04:14.071Z)
Latitude
-0.00003°
Longitude
111.8041°
Altitude
726.316 km
Speed
7.477 km/s
True Right ascension
11h 47m 35s
True Declination
0° 00' 00"
Sunlit
Object was in daylight at epoch
Visualization orbit readout
Latitude
Unknown
Longitude
Unknown
Altitude
Unknown
Speed
Unknown
Apparent Right ascension
Unknown
Apparent Declination
Unknown
Sunlit
N/A
Visualization observer readout
Local Sidereal Time
08:31:31
Azimuth
Unknown
Elevation
Unknown
Doppler factor
Unknown
Orbital elements
Apogee altitude
753.667 km
Perigee altitude
629.723 km
Semi-major axis
7,069.832 km
Eccentricity
0.00877
Inclination
74.0381°
RAAN
176.8984°
Arg. of periapsis
241.1823°
True anomaly
118.93409°
Mean anomaly
118.0522°
Eccentric anomaly
118.4936°
Mean motion
3.65115 °/min
Orbital period
98.6 mins
BSTAR
0.0001016
Loading maneuver chart data...
Computing Atmospheric mass density...

Documentation

Showing up to 5 results
|